Back to catalog

CZ-6A DEB

AliveSSO
NORAD 56685·DEBRIS·🇨🇳 China

Launched Nov 11, 2022 from Taiyuan Satellite Launch Center

Loading…

Next Passes (next 24 hours)

TLE

FreshSource: Space-Track

Epoch: Sep 13, 2026, 05:43 UTC

1 56685U 22151AHM 26256.23830464  .00001519  00000-0  73785-3 0  9991
2 56685  98.8213 262.5298 0043672  61.5884 298.9683 14.19295118173772

Track CZ-6A DEB in real time with AllMySat

Download on the App Store